User: anonymous   Login
Location: Newark
(50.0306°N, 2.3272°E)
Time: 19:22:58
(UTC+00:00)
Language:

Explorer 11/Cluster Stage 4 - Orbit

View from above orbital plane
View from above orbital plane
View from above satellite
View from above satellite

Ground track
Ground track

The orbit data is extracted from the following two-line orbital elements,

1   107U 61013A   19340.89369179 +.00000504 +00000-0 +48582-4 0  9998
2   107 028.7846 194.5488 0547142 128.5041 236.5896 14.08870993938905
Epoch (UTC): 06 December 2019 21:26:54
Eccentricity: 0.0547142
inclination: 28.7846°
perigee height: 467 km
apogee height: 1259 km
right ascension of ascending node: 194.5488°
argument of perigee: 128.5041°
revolutions per day: 14.08870993
mean anomaly at epoch: 236.5896°
orbit number at epoch: 93890

The dashed part of the orbit path shows where the satellite is in the earth's shadow,  

DLR